Location: Beetenbrück
(52.8113°N, 9.5946°E)
Time: 20:56:12
(UTC+00:00)

COBE Rocket - Pass Details

Date: 14 April 2026
Orbit: 676 x 771 km, 97.1° (Epoch: 12 May)

Event Time Altitude Azimuth Distance (km) Brightness Sun altitude
Rises 18:47:07 0° 12° (NNE) 3,157 7.3 -4.8°
Reaches altitude 10° 18:49:23 10° 13° (NNE) 2,245 6.6 -5.1°
Maximum altitude 18:54:21 88° 283° (WNW) 754 4.0 -5.8°
Drops below altitude 10° 18:59:24 10° 196° (SSW) 2,284 6.4 -6.5°
Sets 19:01:43 0° 196° (SSW) 3,215 7.1 -6.8°
